Dewpoint
72 72 71 71 73 73 74 74 74 73 74 73 74 73 73 73 73 72 72 72 72 72 71 69 69 68 67 68 69 70 71 72 72 73 73 73 74 75 75 75 74 74 74 73 73 73 73 73 73 73 73 73 73 73 73 73 73 73 73 73 73 73 72 72 72 72 72 72 72 73 73 73 73 73 73 73 73 73 73 73 73 73 72 72 72
72 72 71 71 72 72 73 73 72 72 74 72 73 73 73 72 72 72 73 72 73 71 72 69 67 65 67 68 68 70 71 72 72 73 73 73 73 75 76 75 75 75 74 74 74 73 73 73 73 74 74 74 73 74 73 73 73 73 73 73 72 72 72 72 72 72 72 72 72 72 73 73 73 74 74 73 73 73 73 73 73 73 73 72 72
72 71 71 71 72 72 72 72 72 72 73 72 73 73 73 73 72 73 74 73 74 72 73 70 69 66 67 67 68 70 71 71 72 73 73 73 73 74 75 76 76 75 75 75 74 74 74 74 74 74 74 74 73 73 73 73 73 73 73 72 72 72 72 72 72 72 72 72 73 73 73 73 73 73 73 73 73 73 73 73 73 73 73 73 73
72 72 72 72 71 71 72 72 71 72 73 73 74 75 75 75 75 76 75 74 73 72 73 71 68 67 67 66 67 69 70 70 71 72 73 73 73 74 74 75 76 76 75 75 75 75 74 74 74 74 74 74 74 74 74 74 74 74 74 73 73 73 73 73 73 73 73 73 73 74 74 73 73 73 73 73 73 73 73 73 73 73 73 73 73
73 72 75 72 72 71 72 74 72 73 74 75 75 74 75 74 72 74 74 74 72 72 73 70 68 68 68 65 66 68 69 70 70 70 71 72 73 74 74 75 75 76 76 76 75 75 75 75 75 75 75 75 75 75 75 74 74 74 74 74 74 74 74 74 74 73 74 74 74 74 74 74 74 73 73 73 73 73 73 73 72 73 73 73 73
73 73 73 73 73 72 72 73 74 75 75 75 72 73 73 73 73 72 74 74 70 71 71 68 69 71 67 65 66 67 68 69 69 69 70 71 72 73 73 74 74 74 75 76 76 76 76 76 76 75 75 75 75 75 75 75 74 75 75 75 75 75 75 75 75 75 75 75 75 75 75 75 75 74 74 74 74 73 73 73 73 73 73 73 73
74 74 73 73 73 73 74 73 74 76 75 76 74 74 74 73 75 73 73 72 72 72 71 68 69 66 66 68 67 67 68 68 68 68 69 69 70 71 72 72 73 74 74 75 77 76 76 76 76 76 76 76 76 76 75 75 75 75 75 75 75 75 75 76 75 75 75 75 75 76 76 76 76 76 76 75 75 75 75 75 74 74 74 74 74
75 76 74 74 73 73 74 75 76 75 74 76 77 73 74 74 76 74 72 71 73 70 71 69 67 67 69 69 70 69 66 66 67 68 68 69 69 69 70 70 71 72 75 73 73 75 76 76 76 76 76 76 76 76 76 76 76 76 76 76 76 76 76 76 76 76 76 76 76 76 76 76 76 76 76 76 76 76 76 75 75 75 75 75 75
76 77 75 74 73 74 75 75 77 75 74 75 74 77 72 72 74 76 73 71 71 69 68 70 69 66 68 68 69 71 66 66 66 67 69 70 70 70 69 69 71 74 73 72 72 72 74 76 77 77 77 77 77 77 77 77 77 77 77 77 77 77 77 77 77 76 76 77 77 77 77 77 77 77 77 76 76 76 77 77 76 76 76 76 76
77 77 75 74 74 74 74 75 75 76 75 74 73 74 74 73 71 74 74 71 70 70 69 67 69 69 67 68 69 69 68 69 67 72 68 69 70 70 70 70 71 72 72 72 71 71 72 73 76 77 77 78 78 77 77 77 77 77 77 77 77 77 77 77 77 77 77 77 77 77 77 77 77 77 77 77 77 77 77 77 77 77 76 76 76
77 77 75 76 74 74 75 76 76 75 74 74 73 75 75 74 73 74 74 73 72 70 70 69 68 66 65 65 68 68 68 68 70 71 67 66 67 69 70 71 71 72 73 73 73 72 72 71 72 73 74 76 78 78 78 78 78 78 78 78 78 78 78 78 78 78 78 78 78 78 78 78 77 78 77 77 77 77 77 77 77 77 77 77 77
76 76 75 74 74 75 75 76 75 74 74 73 72 72 72 72 73 76 74 74 74 72 69 71 69 69 71 66 67 67 67 69 70 68 68 66 65 69 67 67 69 70 72 73 74 73 73 72 74 71 72 73 75 77 79 79 79 79 78 78 78 78 78 78 78 78 78 78 78 78 78 78 78 78 78 78 78 77 77 77 77 77 77 77 76
76 75 75 77 76 75 75 75 76 75 75 73 74 74 74 76 76 75 74 71 72 71 68 69 65 63 68 67 66 67 72 72 67 66 66 66 65 66 67 66 67 67 68 70 72 73 73 73 72 71 71 71 72 75 76 78 78 78 78 78 79 79 78 78 78 78 78 79 79 78 78 78 78 78 78 78 78 78 78 77 77 77 77 77 77
77 76 76 76 75 75 75 75 75 74 75 77 76 79 75 74 73 71 74 72 70 69 67 66 65 63 63 64 67 67 69 71 67 64 66 64 63 62 65 65 65 66 67 68 68 71 73 73 72 71 71 71 72 72 72 74 76 77 78 78 79 79 79 79 79 79 79 79 79 79 78 78 78 78 78 77 77 77 77 77 77 77 77 77 77
77 77 76 76 75 75 75 75 76 77 74 74 75 73 74 73 73 72 71 72 74 73 68 65 64 68 68 65 61 60 66 66 67 67 65 63 62 61 61 64 63 64 66 68 68 70 72 72 72 72 72 72 72 72 73 76 74 76 76 76 77 78 79 79 79 79 79 78 78 78 77 77 77 77 77 77 77 77 77 77 77 77 77 77 76
76 77 77 76 76 75 75 74 75 76 75 74 74 73 74 74 74 75 72 68 69 66 73 69 70 67 61 64 63 63 59 60 64 64 66 64 62 61 61 61 62 63 67 66 66 67 70 71 72 72 73 73 74 74 74 74 75 77 78 78 77 76 78 79 79 78 77 77 77 77 77 77 77 77 77 77 77 77 77 77 77 76 76 75 75
76 77 77 76 76 75 74 74 75 75 75 73 74 74 74 74 73 75 71 68 70 70 70 69 68 70 69 65 61 60 60 62 64 64 68 61 61 60 63 62 61 62 65 65 65 68 68 69 70 71 72 73 72 72 73 74 75 78 79 80 79 78 78 78 78 76 76 76 76 77 77 78 78 78 77 78 77 77 77 76 76 75 75 74 73
76 76 76 76 76 75 74 75 75 75 75 73 74 74 73 73 73 74 71 72 71 69 69 72 73 75 72 66 64 60 59 62 60 57 66 69 67 66 61 62 61 62 64 64 64 65 71 68 69 69 70 70 71 72 72 76 79 78 78 77 80 79 78 78 77 76 76 77 77 78 78 78 78 78 77 77 77 76 76 76 75 74 74 72 70
75 76 76 77 76 75 75 75 75 75 76 73 73 73 74 73 74 74 73 76 71 68 69 71 70 71 72 71 71 72 67 63 60 66 59 63 66 68 60 60 60 60 61 62 63 62 66 69 67 67 69 72 71 74 76 77 80 78 79 79 77 78 78 76 76 76 76 77 77 77 78 77 78 77 77 77 77 76 75 74 74 73 72 71 69
75 75 76 76 76 75 75 75 75 74 75 74 72 73 74 75 75 74 75 74 72 69 69 71 67 68 74 73 72 70 67 67 65 61 61 60 62 65 63 61 61 58 61 62 63 61 65 69 67 68 69 71 75 75 75 75 75 75 77 76 78 78 76 75 75 76 77 77 78 78 78 78 77 77 77 77 76 75 74 74 72 71 70 69 69
75 75 76 76 77 76 75 75 75 74 76 76 75 75 74 74 73 73 72 73 74 73 71 69 69 67 70 69 70 70 69 69 66 68 65 61 62 64 63 62 63 62 63 62 63 64 65 67 68 68 72 74 75 75 75 74 74 74 76 76 78 77 76 76 75 77 76 77 77 78 77 77 77 77 76 76 75 74 73 72 71 70 69 68 68
74 75 76 76 76 76 76 76 75 74 76 75 74 73 74 75 74 74 74 73 75 73 69 69 73 72 71 71 67 68 66 69 66 66 65 63 60 61 63 62 59 59 67 62 62 64 66 66 68 70 72 74 75 75 75 75 75 75 75 77 78 78 77 76 76 77 75 76 77 77 77 77 77 76 75 74 73 72 72 71 69 69 69 68 67
74 75 76 76 76 77 76 75 75 76 77 74 73 74 75 75 75 75 74 74 72 75 74 75 74 73 73 71 69 68 64 64 64 66 65 64 63 63 64 65 63 61 60 64 69 64 65 68 68 69 72 73 73 74 74 74 76 74 75 76 76 77 77 76 76 76 75 74 76 77 77 77 76 74 74 72 71 70 70 69 68 68 68 67 67
74 74 75 76 76 76 77 76 76 75 75 74 75 75 75 74 74 75 75 74 76 76 74 72 72 72 72 71 70 70 70 69 67 67 66 65 64 62 65 66 67 66 67 64 62 63 63 66 68 69 73 72 73 74 75 75 74 75 76 76 75 76 78 77 76 76 75 74 74 75 76 76 74 73 72 72 71 70 69 68 68 68 68 67 67
74 74 75 75 76 75 75 75 75 75 74 75 75 76 74 74 74 75 74 74 73 74 72 72 73 72 71 71 71 70 69 68 66 66 69 69 64 64 66 67 64 66 68 63 58 66 66 66 69 72 73 73 74 76 75 74 72 75 75 76 75 76 77 77 76 75 74 73 74 75 75 75 73 73 73 72 71 71 69 68 67 68 68 67 66
73 74 74 75 75 74 75 75 75 74 75 75 75 75 74 74 75 74 74 74 73 73 73 74 74 74 73 72 71 70 69 70 68 67 66 65 66 66 65 67 68 67 69 68 68 61 61 69 70 72 72 73 74 76 75 75 73 76 76 75 74 74 76 76 76 76 75 74 74 74 75 75 74 73 72 72 71 70 69 68 68 67 67 66 65
73 74 74 74 75 75 75 75 74 74 75 75 76 76 75 75 75 75 76 75 75 74 73 73 73 73 73 72 72 73 70 71 70 69 69 69 67 67 66 63 64 67 68 68 69 63 60 65 70 71 72 74 74 75 76 73 74 74 77 76 74 74 74 75 76 75 74 74 74 74 75 75 74 73 72 72 71 70 69 67 67 67 67 66 65
74 74 74 74 74 74 76 74 75 74 75 75 75 76 75 74 74 75 73 76 74 75 74 74 73 73 73 73 73 71 71 72 72 72 71 71 72 72 69 66 62 62 66 66 67 67 68 68 69 71 73 74 74 74 74 76 72 73 77 75 74 74 73 74 75 74 73 73 73 74 74 74 74 73 72 71 71 70 70 68 67 67 66 65 64
74 74 74 74 74 74 75 74 75 74 75 75 75 76 75 74 74 75 74 74 74 73 74 75 74 74 74 73 72 72 72 74 73 73 73 72 72 72 71 68 66 64 65 63 64 67 68 70 67 69 74 74 74 75 74 74 74 73 73 75 74 74 73 72 73 73 73 73 73 73 74 74 74 73 72 72 71 70 69 68 67 66 66 64 63
73 74 74 74 74 76 74 75 75 75 75 75 76 76 75 74 75 75 75 74 74 75 75 75 75 75 75 75 73 73 73 73 73 71 72 71 70 71 73 71 70 67 66 63 65 68 69 71 68 70 72 71 73 73 74 74 75 74 73 74 75 74 73 71 72 72 72 72 72 72 73 73 73 73 72 72 70 69 68 67 66 66 66 64 63
73 74 73 73 74 75 73 74 75 75 75 75 76 75 76 75 74 75 75 74 74 73 73 75 75 76 74 73 74 75 74 74 75 72 74 73 72 72 74 72 71 69 69 66 65 67 71 69 71 72 72 71 72 72 72 73 75 74 72 73 74 74 73 73 72 72 71 71 71 71 71 71 71 71 71 70 69 69 67 67 66 66 65 63 62
72 72 73 72 73 74 73 73 74 75 75 75 75 75 76 75 75 75 74 74 74 74 74 74 75 75 74 73 73 74 74 75 73 74 74 74 75 72 72 72 71 71 71 68 66 66 70 71 71 73 73 73 73 72 72 73 74 75 75 73 73 74 75 74 72 72 71 71 70 70 69 69 68 69 69 69 69 69 69 67 66 65 64 63 62
70 72 72 72 73 73 73 73 74 74 74 74 74 74 75 75 75 75 74 74 73 74 74 75 75 75 74 73 73 73 75 73 73 74 74 73 72 71 70 72 72 72 70 69 67 68 69 71 73 73 73 73 71 73 72 72 72 72 74 73 74 73 74 74 73 71 71 70 70 69 68 68 67 67 68 68 69 69 68 67 65 64 63 62 61
69 71 71 71 72 73 73 72 73 73 73 74 74 74 74 75 75 75 74 74 73 74 74 74 74 74 73 73 73 74 74 73 72 71 71 71 70 70 70 70 70 71 72 70 69 68 68 70 71 73 72 74 70 71 71 72 72 74 72 72 72 73 73 74 74 73 71 70 70 69 68 67 66 66 67 68 68 68 68 67 66 65 63 61 60
70 69 71 71 72 72 72 72 72 72 73 73 73 73 74 74 74 74 74 74 73 73 73 73 73 73 73 72 73 74 74 73 72 72 72 71 70 69 69 70 69 69 71 71 70 69 69 70 71 71 71 72 70 71 72 73 74 73 72 72 71 72 74 75 75 74 71 70 69 69 68 67 66 65 65 66 67 67 67 66 65 63 63 61 60
69 69 70 71 71 72 71 71 71 71 72 72 72 72 73 73 73 73 73 72 73 73 73 73 73 74 73 73 72 72 73 72 71 71 71 71 70 69 69 70 70 70 70 72 71 69 69 68 68 71 71 70 71 73 74 74 73 72 72 72 73 74 74 75 75 74 73 70 69 68 68 67 66 65 64 65 65 65 65 64 63 62 60 61 60
68 69 70 70 71 71 71 71 71 71 71 72 72 71 72 73 73 72 72 72 72 72 73 73 75 73 73 72 72 72 72 71 71 71 71 71 70 70 69 68 70 70 71 72 72 71 69 68 68 69 71 72 72 73 72 72 72 73 73 73 73 72 73 73 73 74 72 70 69 69 68 67 66 65 64 64 64 63 63 63 62 60 60 60 58
68 68 69 69 69 71 71 71 71 71 71 72 72 71 71 72 72 72 72 72 72 72 72 73 73 73 72 72 71 71 71 71 70 70 70 71 70 69 69 69 69 70 71 71 71 71 70 69 68 69 69 70 70 71 72 72 73 72 71 70 70 71 72 72 73 73 73 72 71 71 69 67 66 65 65 64 63 63 63 62 61 60 59 58 56
69 67 68 69 69 68 70 71 71 71 71 72 72 71 71 71 72 72 72 71 71 71 72 72 72 72 72 72 72 72 71 71 71 70 70 70 70 69 69 70 70 69 70 70 69 69 70 70 70 70 71 71 71 71 72 72 72 72 70 68 67 68 69 71 71 73 72 71 71 70 70 69 68 66 63 62 62 63 62 61 60 59 58 57 56
71 68 66 68 69 69 68 69 70 71 72 72 72 72 71 70 71 72 72 71 71 71 70 71 71 71 72 72 72 72 72 71 71 71 71 70 70 70 70 70 70 70 69 68 68 68 69 69 69 69 69 69 69 70 70 69 68 68 69 68 67 68 69 70 72 72 73 71 71 70 69 68 67 67 64 63 63 63 62 61 61 61 60 58 57
73 72 67 66 67 69 69 69 69 69 69 70 71 72 72 71 70 70 70 71 71 71 70 70 70 70 70 70 70 70 71 75 74 73 72 72 69 69 69 70 69 68 67 67 68 68 68 68 68 68 68 69 69 69 69 68 68 68 68 68 68 69 70 70 71 73 74 73 72 71 70 69 68 67 66 65 64 64 63 63 62 63 61 59 57
73 72 72 67 66 67 69 70 69 69 69 69 71 69 71 72 71 70 70 70 70 70 70 70 70 70 69 69 69 74 76 77 76 74 73 73 74 71 68 68 69 69 69 68 68 69 68 68 68 69 69 69 70 69 69 69 69 68 69 68 67 68 68 70 70 71 73 73 72 71 71 70 68 67 65 65 64 66 64 62 60 60 61 59 58
72 72 72 71 70 67 66 69 70 69 68 69 68 65 65 68 71 71 70 70 71 70 70 69 69 69 69 69 69 72 76 78 75 74 73 72 71 72 73 73 72 69 68 69 69 69 69 69 70 69 69 69 69 70 70 70 69 69 68 68 67 67 68 67 66 67 70 73 71 69 69 70 68 67 68 67 66 64 63 63 62 61 60 60 59
72 73 72 72 71 71 70 68 67 69 69 69 65 64 64 64 68 71 71 70 70 70 70 69 69 69 69 68 68 68 69 69 70 70 72 72 70 69 69 70 71 72 71 69 68 68 69 69 69 69 69 69 69 69 69 69 69 69 69 69 68 67 66 66 65 66 68 74 70 68 68 69 69 68 68 69 68 67 65 64 62 60 59 59 59
74 72 72 72 72 72 71 70 71 72 71 67 64 62 63 63 63 68 70 71 70 70 70 69 69 69 68 69 68 68 66 72 73 69 67 66 67 68 68 69 70 69 67 67 69 70 69 69 69 68 68 68 68 68 69 69 68 68 68 68 68 67 68 68 68 67 69 71 69 68 68 69 71 71 71 71 72 71 69 65 63 61 60 59 59
73 73 73 72 72 71 71 71 71 71 71 70 65 62 60 60 61 63 68 70 70 70 70 70 69 69 69 68 68 68 68 68 68 68 68 68 69 69 69 69 69 70 69 67 67 67 69 69 68 67 67 69 67 67 68 68 66 66 65 65 65 66 67 67 68 69 70 72 70 68 68 70 71 70 70 70 70 71 71 67 63 61 60 59 58
73 73 73 72 72 72 72 72 71 71 70 67 64 63 60 58 58 61 65 67 69 70 70 70 70 69 69 69 68 68 68 68 68 68 66 66 65 66 66 66 67 67 67 67 67 67 68 67 67 67 66 66 66 66 66 65 65 66 66 65 65 66 67 70 71 71 71 72 72 70 69 71 70 68 69 69 70 69 65 62 62 61 60 59 58
72 73 73 73 72 72 72 72 72 71 71 65 64 63 62 59 59 63 64 65 66 68 70 70 70 70 70 69 69 68 68 68 70 68 70 68 66 65 65 65 66 67 67 69 65 65 68 67 67 66 66 65 64 65 65 64 64 65 67 69 70 71 70 69 68 67 68 70 73 71 69 70 71 70 70 70 66 67 65 61 61 61 60 59 58
68 70 71 72 72 73 73 73 72 72 72 67 62 60 60 59 60 64 64 65 65 66 67 69 70 70 70 69 69 68 68 67 68 64 64 69 68 67 66 65 65 65 66 68 66 63 62 61 62 63 62 62 61 60 60 61 65 66 65 64 63 63 65 65 66 67 67 67 70 72 70 69 70 70 70 69 65 66 65 63 59 60 60 59 58
68 68 69 71 71 72 72 72 72 72 72 70 61 57 57 57 62 64 64 64 64 65 66 67 68 69 70 72 73 69 68 68 65 63 63 67 67 67 67 67 67 67 67 68 68 68 64 61 61 61 61 62 62 62 62 62 62 65 65 65 66 65 63 64 63 64 65 66 67 72 67 68 67 67 66 66 65 64 63 62 59 58 59 58 56
69 69 69 70 70 70 70 70 73 72 72 70 63 59 59 55 60 65 65 65 65 65 65 65 66 67 68 71 73 71 69 67 62 62 61 66 68 68 67 67 66 65 65 65 66 66 66 66 66 67 67 67 68 67 68 65 65 70 67 66 66 65 65 64 64 64 64 65 66 69 66 66 65 65 65 63 63 65 64 61 60 58 58 59 58